Time,TemperatureF,DewpointF,PressureIn,WindDirection,WindDirectionDegrees,WindSpeedMPH,WindSpeedGustMPH,Humidity,HourlyPrecipIn,Conditions,Clouds,dailyrainin,SoftwareType,DateUTC
2013-07-18 00:00:00,77.5,67.5,30.15,South,177,5.7,7.9,71,0.00,,,0.00,CWS Microserver 1.4,2013-07-18 05:00:00,
2013-07-18 00:05:00,77.3,67.5,30.15,SSW,194,5.3,7.9,72,0.00,,,0.00,CWS Microserver 1.4,2013-07-18 05:05:00,
2013-07-18 00:10:00,77.3,67.4,30.15,SSW,193,5.5,8.0,71,0.00,,,0.00,CWS Microserver 1.4,2013-07-18 05:10:00,
2013-07-18 00:15:00,77.5,67.4,30.15,South,183,5.1,8.0,71,0.00,,,0.00,CWS Microserver 1.4,2013-07-18 05:15:00,
2013-07-18 00:20:00,77.7,67.5,30.15,SSW,205,5.5,8.4,71,0.00,,,0.00,CWS Microserver 1.4,2013-07-18 05:20:00,
2013-07-18 00:25:00,77.7,67.5,30.15,SSW,199,6.6,8.4,70,0.00,,,0.00,CWS Microserver 1.4,2013-07-18 05:25:00,
2013-07-18 00:30:00,77.5,67.2,30.15,SSW,201,8.3,8.3,70,0.00,,,0.00,CWS Microserver 1.4,2013-07-18 05:30:00,
2013-07-18 00:35:00,77.3,67.3,30.15,SSW,197,3.9,8.3,71,0.00,,,0.00,CWS Microserver 1.4,2013-07-18 05:35:00,
2013-07-18 00:40:00,77.1,67.2,30.15,South,184,3.8,8.3,71,0.00,,,0.00,CWS Microserver 1.4,2013-07-18 05:40:00,
2013-07-18 00:45:00,77.0,67.2,30.15,SSW,198,4.3,7.7,72,0.00,,,0.00,CWS Microserver 1.4,2013-07-18 05:45:00,
2013-07-18 00:50:00,76.8,67.2,30.15,SSW,213,5.4,8.1,72,0.00,,,0.00,CWS Microserver 1.4,2013-07-18 05:50:00,
2013-07-18 00:55:00,76.8,67.3,30.15,SW,235,5.2,8.1,72,0.00,,,0.00,CWS Microserver 1.4,2013-07-18 05:55:00,
2013-07-18 01:00:00,76.8,67.2,30.15,SW,220,5.6,8.4,72,0.00,,,0.00,CWS Microserver 1.4,2013-07-18 06:00:00,
2013-07-18 01:05:00,76.6,67.1,30.15,SSW,200,5.1,8.4,72,0.00,,,0.00,CWS Microserver 1.4,2013-07-18 06:05:00,
2013-07-18 01:10:00,76.6,67.1,30.15,SW,218,6.3,7.3,72,0.00,,,0.00,CWS Microserver 1.4,2013-07-18 06:10:00,
2013-07-18 01:15:00,76.8,67.2,30.15,SSW,204,5.8,7.9,72,0.00,,,0.00,CWS Microserver 1.4,2013-07-18 06:15:00,
2013-07-18 01:20:00,76.8,67.0,30.15,SSW,194,7.1,9.1,71,0.00,,,0.00,CWS Microserver 1.4,2013-07-18 06:20:00,
2013-07-18 01:25:00,76.8,66.9,30.15,SW,214,5.1,9.1,71,0.00,,,0.00,CWS Microserver 1.4,2013-07-18 06:25:00,
2013-07-18 01:30:00,77.0,67.1,30.15,SSW,208,4.6,7.8,71,0.00,,,0.00,CWS Microserver 1.4,2013-07-18 06:30:00,
2013-07-18 01:35:00,77.1,67.1,30.15,SSW,196,4.9,7.8,71,0.00,,,0.00,CWS Microserver 1.4,2013-07-18 06:35:00,
2013-07-18 01:40:00,77.0,67.0,30.15,SSW,205,6.1,8.1,71,0.00,,,0.00,CWS Microserver 1.4,2013-07-18 06:40:00,
2013-07-18 01:45:00,76.8,67.1,30.14,South,176,1.5,8.7,72,0.00,,,0.00,CWS Microserver 1.4,2013-07-18 06:45:00,
2013-07-18 01:50:00,76.6,67.0,30.14,SSW,205,4.8,8.7,72,0.00,,,0.00,CWS Microserver 1.4,2013-07-18 06:50:00,
2013-07-18 01:55:00,76.6,67.1,30.15,SSW,213,1.8,8.5,72,0.00,,,0.00,CWS Microserver 1.4,2013-07-18 06:55:00,
2013-07-18 02:00:00,76.2,67.0,30.15,South,182,2.9,7.8,73,0.00,,,0.00,CWS Microserver 1.4,2013-07-18 07:00:00,
2013-07-18 02:05:00,76.2,67.1,30.15,SSW,204,3.1,7.8,73,0.00,,,0.00,CWS Microserver 1.4,2013-07-18 07:05:00,
2013-07-18 02:10:00,76.1,67.1,30.14,SSW,198,5.3,8.2,73,0.00,,,0.00,CWS Microserver 1.4,2013-07-18 07:10:00,
2013-07-18 02:15:00,75.7,67.0,30.14,SSW,199,5.6,8.2,74,0.00,,,0.00,CWS Microserver 1.4,2013-07-18 07:15:00,
2013-07-18 02:20:00,75.9,67.3,30.14,SSW,197,2.9,6.1,74,0.00,,,0.00,CWS Microserver 1.4,2013-07-18 07:20:00,
2013-07-18 02:25:00,75.9,67.1,30.14,SW,222,4.5,6.8,74,0.00,,,0.00,CWS Microserver 1.4,2013-07-18 07:25:00,
2013-07-18 02:30:00,76.1,67.2,30.14,SSW,195,2.8,6.8,74,0.00,,,0.00,CWS Microserver 1.4,2013-07-18 07:30:00,
2013-07-18 02:35:00,76.2,67.0,30.14,SW,229,4.4,10.7,73,0.00,,,0.00,CWS Microserver 1.4,2013-07-18 07:35:00,
2013-07-18 02:40:00,76.2,67.2,30.14,SW,227,5.6,10.7,73,0.00,,,0.00,CWS Microserver 1.4,2013-07-18 07:40:00,
2013-07-18 02:45:00,76.1,67.1,30.14,SW,219,1.8,8.7,73,0.00,,,0.00,CWS Microserver 1.4,2013-07-18 07:45:00,
2013-07-18 02:50:00,76.4,67.3,30.14,SW,215,3.4,9.7,73,0.00,,,0.00,CWS Microserver 1.4,2013-07-18 07:50:00,
2013-07-18 02:55:00,76.6,67.3,30.14,SW,215,5.5,10.5,73,0.00,,,0.00,CWS Microserver 1.4,2013-07-18 07:55:00,
2013-07-18 03:00:00,76.8,67.3,30.14,SSW,202,1.4,14.0,72,0.00,,,0.00,CWS Microserver 1.4,2013-07-18 08:00:00,
2013-07-18 03:05:00,77.0,67.4,30.13,SW,224,7.8,14.0,72,0.00,,,0.00,CWS Microserver 1.4,2013-07-18 08:05:00,
2013-07-18 03:10:00,76.8,67.4,30.13,SW,217,4.1,11.2,72,0.00,,,0.00,CWS Microserver 1.4,2013-07-18 08:10:00,
2013-07-18 03:15:00,76.8,67.4,30.13,South,186,4.0,9.7,72,0.00,,,0.00,CWS Microserver 1.4,2013-07-18 08:15:00,
2013-07-18 03:20:00,76.6,67.3,30.13,SSW,205,4.6,9.7,73,0.00,,,0.00,CWS Microserver 1.4,2013-07-18 08:20:00,
2013-07-18 03:25:00,76.6,67.4,30.13,SSW,200,2.9,9.9,73,0.00,,,0.00,CWS Microserver 1.4,2013-07-18 08:25:00,
2013-07-18 03:30:00,76.6,67.3,30.13,SW,215,5.7,9.9,73,0.00,,,0.00,CWS Microserver 1.4,2013-07-18 08:30:00,
2013-07-18 03:35:00,76.6,67.3,30.13,SSW,207,5.2,9.3,73,0.00,,,0.00,CWS Microserver 1.4,2013-07-18 08:35:00,
2013-07-18 03:40:00,76.6,67.3,30.13,SSW,199,4.9,9.5,73,0.00,,,0.00,CWS Microserver 1.4,2013-07-18 08:40:00,
2013-07-18 03:45:00,76.6,67.3,30.12,SSW,196,4.8,9.5,73,0.00,,,0.00,CWS Microserver 1.4,2013-07-18 08:45:00,
2013-07-18 03:50:00,76.6,67.3,30.12,SSW,197,2.2,12.6,73,0.00,,,0.00,CWS Microserver 1.4,2013-07-18 08:50:00,
2013-07-18 03:55:00,76.8,67.1,30.12,South,178,4.5,12.6,72,0.00,,,0.00,CWS Microserver 1.4,2013-07-18 08:55:00,
2013-07-18 04:00:00,77.0,67.1,30.12,WSW,247,4.0,11.8,71,0.00,,,0.00,CWS Microserver 1.4,2013-07-18 09:00:00,
2013-07-18 04:05:00,77.0,67.0,30.11,SW,226,12.5,14.9,71,0.00,,,0.00,CWS Microserver 1.4,2013-07-18 09:05:00,
2013-07-18 04:10:00,77.3,67.0,30.11,SW,233,6.5,14.9,70,0.00,,,0.00,CWS Microserver 1.4,2013-07-18 09:10:00,
2013-07-18 04:20:00,77.1,66.9,30.11,SW,218,4.0,10.2,71,0.00,,,0.00,CWS Microserver 1.4,2013-07-18 09:20:00,
2013-07-18 04:25:00,76.8,66.9,30.11,SSW,199,6.4,9.1,71,0.00,,,0.00,CWS Microserver 1.4,2013-07-18 09:25:00,
2013-07-18 04:30:00,76.8,67.1,30.11,SW,215,4.3,10.0,72,0.00,,,0.00,CWS Microserver 1.4,2013-07-18 09:30:00,
2013-07-18 04:35:00,76.4,66.9,30.11,SSW,192,7.9,11.1,72,0.00,,,0.00,CWS Microserver 1.4,2013-07-18 09:35:00,
2013-07-18 04:40:00,76.2,66.9,30.11,SSW,210,7.7,11.1,73,0.00,,,0.00,CWS Microserver 1.4,2013-07-18 09:40:00,
2013-07-18 04:45:00,76.2,67.0,30.11,SSW,199,8.4,12.6,73,0.00,,,0.00,CWS Microserver 1.4,2013-07-18 09:45:00,
2013-07-18 04:50:00,75.9,67.0,30.10,SW,219,9.0,12.6,74,0.00,,,0.00,CWS Microserver 1.4,2013-07-18 09:50:00,
2013-07-18 04:55:00,75.9,67.0,30.10,SW,222,8.8,11.7,74,0.00,,,0.00,CWS Microserver 1.4,2013-07-18 09:55:00,
2013-07-18 05:00:00,76.1,67.1,30.11,SW,220,3.8,9.1,73,0.00,,,0.00,CWS Microserver 1.4,2013-07-18 10:00:00,
2013-07-18 05:05:00,76.1,67.1,30.11,SSW,194,3.4,9.1,73,0.00,,,0.00,CWS Microserver 1.4,2013-07-18 10:05:00,
2013-07-18 05:10:00,75.9,66.9,30.11,SW,222,4.5,11.1,73,0.00,,,0.00,CWS Microserver 1.4,2013-07-18 10:10:00,
2013-07-18 05:15:00,76.1,67.1,30.11,SW,226,3.5,12.7,73,0.00,,,0.00,CWS Microserver 1.4,2013-07-18 10:15:00,
2013-07-18 05:20:00,76.1,67.2,30.11,SW,214,8.1,12.7,74,0.00,,,0.00,CWS Microserver 1.4,2013-07-18 10:20:00,
2013-07-18 05:25:00,75.7,67.0,30.10,SW,218,7.1,12.1,74,0.00,,,0.00,CWS Microserver 1.4,2013-07-18 10:25:00,
2013-07-18 05:30:00,75.5,67.1,30.10,SSW,207,3.5,12.1,75,0.00,,,0.00,CWS Microserver 1.4,2013-07-18 10:30:00,
2013-07-18 05:35:00,75.5,67.2,30.10,SSW,212,9.2,13.5,75,0.00,,,0.00,CWS Microserver 1.4,2013-07-18 10:35:00,
2013-07-18 05:40:00,75.3,67.2,30.10,SE,125,0.8,13.5,76,0.00,,,0.00,CWS Microserver 1.4,2013-07-18 10:40:00,
2013-07-18 05:45:00,75.2,67.1,30.10,SW,214,8.5,9.4,76,0.00,,,0.00,CWS Microserver 1.4,2013-07-18 10:45:00,
2013-07-18 05:50:00,75.0,67.0,30.10,SSW,200,3.8,9.1,76,0.00,,,0.00,CWS Microserver 1.4,2013-07-18 10:50:00,
2013-07-18 05:55:00,74.6,67.0,30.10,SSW,195,5.1,8.5,77,0.00,,,0.00,CWS Microserver 1.4,2013-07-18 10:55:00,
2013-07-18 06:00:00,74.6,67.0,30.10,SSW,205,7.0,9.1,77,0.00,,,0.00,CWS Microserver 1.4,2013-07-18 11:00:00,
2013-07-18 06:05:00,74.8,67.1,30.09,South,189,7.8,9.1,77,0.00,,,0.00,CWS Microserver 1.4,2013-07-18 11:05:00,
2013-07-18 06:10:00,74.8,67.0,30.09,SSW,211,7.6,12.4,76,0.00,,,0.00,CWS Microserver 1.4,2013-07-18 11:10:00,
2013-07-18 06:15:00,74.8,67.0,30.09,SW,220,2.3,12.4,76,0.00,,,0.00,CWS Microserver 1.4,2013-07-18 11:15:00,
2013-07-18 06:20:00,75.0,67.0,30.09,SSW,200,5.6,9.5,76,0.00,,,0.00,CWS Microserver 1.4,2013-07-18 11:20:00,
2013-07-18 06:25:00,75.0,67.0,30.09,SW,219,6.1,9.5,76,0.00,,,0.00,CWS Microserver 1.4,2013-07-18 11:25:00,
2013-07-18 06:30:00,75.3,67.0,30.09,SW,228,6.4,12.4,75,0.00,,,0.00,CWS Microserver 1.4,2013-07-18 11:30:00,
2013-07-18 06:35:00,75.5,67.1,30.09,SSW,213,3.5,12.4,75,0.00,,,0.00,CWS Microserver 1.4,2013-07-18 11:35:00,
2013-07-18 06:40:00,75.5,66.7,30.09,SW,220,10.4,13.0,74,0.00,,,0.00,CWS Microserver 1.4,2013-07-18 11:40:00,
2013-07-18 06:45:00,75.9,66.9,30.09,SW,219,9.5,13.0,73,0.00,,,0.00,CWS Microserver 1.4,2013-07-18 11:45:00,
2013-07-18 06:50:00,75.9,67.0,30.09,SW,231,9.0,12.6,74,0.00,,,0.00,CWS Microserver 1.4,2013-07-18 11:50:00,
2013-07-18 06:55:00,76.2,67.0,30.09,SW,219,6.7,14.6,73,0.00,,,0.00,CWS Microserver 1.4,2013-07-18 11:55:00,
2013-07-18 07:00:00,76.4,66.9,30.08,SW,222,12.2,15.3,72,0.00,,,0.00,CWS Microserver 1.4,2013-07-18 12:00:00,
2013-07-18 07:05:00,76.4,66.8,30.08,WSW,238,11.5,15.3,72,0.00,,,0.00,CWS Microserver 1.4,2013-07-18 12:05:00,
2013-07-18 07:10:00,76.6,66.9,30.09,SW,230,8.8,15.7,72,0.00,,,0.00,CWS Microserver 1.4,2013-07-18 12:10:00,
2013-07-18 07:15:00,76.8,67.2,30.09,SW,224,9.1,15.7,72,0.00,,,0.00,CWS Microserver 1.4,2013-07-18 12:15:00,
2013-07-18 07:20:00,76.8,67.0,30.08,SW,229,8.0,14.4,71,0.00,,,0.00,CWS Microserver 1.4,2013-07-18 12:20:00,
2013-07-18 07:25:00,77.0,66.8,30.08,SW,217,11.3,15.0,70,0.00,,,0.00,CWS Microserver 1.4,2013-07-18 12:25:00,
2013-07-18 07:30:00,77.3,67.1,30.08,WSW,240,10.0,16.5,71,0.00,,,0.00,CWS Microserver 1.4,2013-07-18 12:30:00,
2013-07-18 07:35:00,77.3,67.0,30.08,SW,219,8.5,16.5,70,0.00,,,0.00,CWS Microserver 1.4,2013-07-18 12:35:00,
2013-07-18 07:40:00,77.5,67.1,30.08,SW,221,9.8,13.8,70,0.00,,,0.00,CWS Microserver 1.4,2013-07-18 12:40:00,
2013-07-18 07:45:00,77.9,67.0,30.08,WSW,239,8.1,14.6,69,0.00,,,0.00,CWS Microserver 1.4,2013-07-18 12:45:00,
2013-07-18 07:50:00,78.2,67.1,30.08,WSW,254,8.4,14.6,68,0.00,,,0.00,CWS Microserver 1.4,2013-07-18 12:50:00,
2013-07-18 07:55:00,78.4,67.0,30.08,SW,214,6.0,13.7,68,0.00,,,0.00,CWS Microserver 1.4,2013-07-18 12:55:00,
2013-07-18 08:00:00,78.6,66.9,30.08,SW,215,9.3,15.1,67,0.00,,,0.00,CWS Microserver 1.4,2013-07-18 13:00:00,
2013-07-18 08:05:00,78.8,67.0,30.08,SW,223,8.7,15.2,67,0.00,,,0.00,CWS Microserver 1.4,2013-07-18 13:05:00,
2013-07-18 08:10:00,78.9,66.5,30.07,SW,218,17.9,18.2,66,0.00,,,0.00,CWS Microserver 1.4,2013-07-18 13:10:00,
2013-07-18 08:15:00,79.1,67.0,30.07,SW,215,8.8,18.2,66,0.00,,,0.00,CWS Microserver 1.4,2013-07-18 13:15:00,
2013-07-18 08:20:00,79.3,67.6,30.07,SW,223,7.6,17.9,67,0.00,,,0.00,CWS Microserver 1.4,2013-07-18 13:20:00,
2013-07-18 08:30:00,79.7,66.8,30.07,SW,218,7.2,17.6,64,0.00,,,0.00,CWS Microserver 1.4,2013-07-18 13:30:00,
2013-07-18 08:35:00,79.8,67.0,30.07,SW,228,10.7,17.6,65,0.00,,,0.00,CWS Microserver 1.4,2013-07-18 13:35:00,
2013-07-18 08:40:00,80.2,67.3,30.07,SW,229,9.2,16.5,65,0.00,,,0.00,CWS Microserver 1.4,2013-07-18 13:40:00,
2013-07-18 08:45:00,80.4,67.1,30.07,SW,228,13.8,15.6,64,0.00,,,0.00,CWS Microserver 1.4,2013-07-18 13:45:00,
2013-07-18 08:50:00,80.4,66.9,30.07,SW,218,10.0,18.4,63,0.00,,,0.00,CWS Microserver 1.4,2013-07-18 13:50:00,
2013-07-18 08:55:00,80.7,67.3,30.07,SSW,213,6.6,18.4,63,0.00,,,0.00,CWS Microserver 1.4,2013-07-18 13:55:00,
2013-07-18 09:00:00,80.9,66.3,30.07,SW,220,16.0,20.5,61,0.00,,,0.00,CWS Microserver 1.4,2013-07-18 14:00:00,
2013-07-18 09:05:00,81.1,67.0,30.07,West,266,8.9,20.5,62,0.00,,,0.00,CWS Microserver 1.4,2013-07-18 14:05:00,
2013-07-18 09:10:00,81.3,66.9,30.07,SW,222,10.0,20.1,61,0.00,,,0.00,CWS Microserver 1.4,2013-07-18 14:10:00,
2013-07-18 09:15:00,81.5,66.7,30.06,SW,225,8.3,19.0,61,0.00,,,0.00,CWS Microserver 1.4,2013-07-18 14:15:00,
2013-07-18 09:20:00,81.8,66.6,30.06,SW,220,10.0,19.0,60,0.00,,,0.00,CWS Microserver 1.4,2013-07-18 14:20:00,
2013-07-18 09:25:00,82.2,66.2,30.06,WSW,247,8.7,15.3,58,0.00,,,0.00,CWS Microserver 1.4,2013-07-18 14:25:00,
2013-07-18 09:30:00,82.2,67.2,30.06,SW,226,5.1,13.9,60,0.00,,,0.00,CWS Microserver 1.4,2013-07-18 14:30:00,
2013-07-18 09:35:00,82.7,66.2,30.06,WSW,246,15.5,18.0,57,0.00,,,0.00,CWS Microserver 1.4,2013-07-18 14:35:00,
2013-07-18 09:45:00,82.7,66.6,30.06,WSW,237,16.3,24.6,58,0.00,,,0.00,CWS Microserver 1.4,2013-07-18 14:45:00,
2013-07-18 09:50:00,82.9,66.9,30.06,SW,222,10.3,21.6,58,0.00,,,0.00,CWS Microserver 1.4,2013-07-18 14:50:00,
2013-07-18 09:55:00,83.1,67.5,30.06,SW,228,10.4,18.9,59,0.00,,,0.00,CWS Microserver 1.4,2013-07-18 14:55:00,
2013-07-18 10:00:00,83.1,67.0,30.06,SW,224,14.3,24.1,58,0.00,,,0.00,CWS Microserver 1.4,2013-07-18 15:00:00,
2013-07-18 10:05:00,83.3,67.5,30.06,SW,229,9.4,24.1,59,0.00,,,0.00,CWS Microserver 1.4,2013-07-18 15:05:00,
2013-07-18 10:10:00,83.3,67.8,30.05,SW,233,12.9,23.1,59,0.00,,,0.00,CWS Microserver 1.4,2013-07-18 15:10:00,
2013-07-18 10:15:00,83.8,67.8,30.05,SW,220,4.2,19.0,58,0.00,,,0.00,CWS Microserver 1.4,2013-07-18 15:15:00,
2013-07-18 10:20:00,83.8,67.5,30.05,South,187,5.2,21.5,58,0.00,,,0.00,CWS Microserver 1.4,2013-07-18 15:20:00,
2013-07-18 10:25:00,83.8,67.6,30.04,SW,220,14.6,21.5,58,0.00,,,0.00,CWS Microserver 1.4,2013-07-18 15:25:00,
2013-07-18 10:30:00,84.3,67.0,30.04,SSW,212,9.0,21.0,56,0.00,,,0.00,CWS Microserver 1.4,2013-07-18 15:30:00,
2013-07-18 10:35:00,84.3,66.8,30.04,SW,225,15.4,21.3,55,0.00,,,0.00,CWS Microserver 1.4,2013-07-18 15:35:00,
2013-07-18 10:40:00,84.2,67.1,30.04,SW,229,7.5,21.3,56,0.00,,,0.00,CWS Microserver 1.4,2013-07-18 15:40:00,
2013-07-18 10:45:00,85.1,67.1,30.04,SW,224,9.1,20.8,55,0.00,,,0.00,CWS Microserver 1.4,2013-07-18 15:45:00,
2013-07-18 10:50:00,84.9,66.8,30.04,SSW,203,14.0,20.8,54,0.00,,,0.00,CWS Microserver 1.4,2013-07-18 15:50:00,
2013-07-18 10:55:00,84.7,66.5,30.04,SSW,213,21.9,26.8,54,0.00,,,0.00,CWS Microserver 1.4,2013-07-18 15:55:00,
2013-07-18 11:00:00,85.4,66.9,30.04,SSW,212,15.5,26.8,54,0.00,,,0.00,CWS Microserver 1.4,2013-07-18 16:00:00,
2013-07-18 11:05:00,85.6,67.0,30.04,SSW,211,16.7,22.9,54,0.00,,,0.00,CWS Microserver 1.4,2013-07-18 16:05:00,
2013-07-18 11:10:00,85.4,64.9,30.04,SW,225,23.2,26.0,50,0.00,,,0.00,CWS Microserver 1.4,2013-07-18 16:10:00,
2013-07-18 11:20:00,85.2,65.4,30.03,SW,218,16.3,24.1,51,0.00,,,0.00,CWS Microserver 1.4,2013-07-18 16:20:00,
2013-07-18 11:25:00,86.0,66.1,30.03,SSW,200,8.3,23.6,51,0.00,,,0.00,CWS Microserver 1.4,2013-07-18 16:25:00,
2013-07-18 11:30:00,86.1,66.2,30.03,SW,214,14.0,23.9,51,0.00,,,0.00,CWS Microserver 1.4,2013-07-18 16:30:00,
2013-07-18 11:40:00,85.8,66.2,30.03,SW,218,15.5,28.8,52,0.00,,,0.00,CWS Microserver 1.4,2013-07-18 16:40:00,
2013-07-18 11:45:00,86.1,65.8,30.03,SW,228,15.3,26.9,51,0.00,,,0.00,CWS Microserver 1.4,2013-07-18 16:45:00,
2013-07-18 11:50:00,86.5,65.2,30.03,SW,214,14.7,26.9,49,0.00,,,0.00,CWS Microserver 1.4,2013-07-18 16:50:00,
2013-07-18 11:55:00,86.3,66.0,30.02,SW,223,21.2,27.6,51,0.00,,,0.00,CWS Microserver 1.4,2013-07-18 16:55:00,
2013-07-18 12:00:00,86.5,66.3,30.02,SW,220,18.5,27.6,51,0.00,,,0.00,CWS Microserver 1.4,2013-07-18 17:00:00,
2013-07-18 12:05:00,87.4,66.3,30.02,SSW,209,6.1,24.8,49,0.00,,,0.00,CWS Microserver 1.4,2013-07-18 17:05:00,
2013-07-18 12:10:00,87.4,65.3,30.02,SW,215,13.4,24.0,48,0.00,,,0.00,CWS Microserver 1.4,2013-07-18 17:10:00,
2013-07-18 12:15:00,87.4,65.9,30.02,SW,215,17.8,24.0,49,0.00,,,0.00,CWS Microserver 1.4,2013-07-18 17:15:00,
2013-07-18 12:20:00,87.8,65.3,30.02,WSW,237,15.0,25.0,47,0.00,,,0.00,CWS Microserver 1.4,2013-07-18 17:20:00,
2013-07-18 12:25:00,87.8,65.1,30.02,SW,223,21.0,27.7,47,0.00,,,0.00,CWS Microserver 1.4,2013-07-18 17:25:00,
2013-07-18 12:30:00,87.0,65.1,30.02,SW,215,9.5,30.1,48,0.00,,,0.00,CWS Microserver 1.4,2013-07-18 17:30:00,
2013-07-18 12:35:00,87.4,64.7,30.01,SW,226,14.7,30.1,47,0.00,,,0.00,CWS Microserver 1.4,2013-07-18 17:35:00,
2013-07-18 12:40:00,87.8,64.9,30.01,SW,225,13.9,24.4,46,0.00,,,0.00,CWS Microserver 1.4,2013-07-18 17:40:00,
2013-07-18 12:45:00,88.3,64.6,30.01,SW,219,25.8,25.8,45,0.00,,,0.00,CWS Microserver 1.4,2013-07-18 17:45:00,
2013-07-18 12:55:00,87.6,64.7,30.00,SSW,210,13.8,25.8,46,0.00,,,0.00,CWS Microserver 1.4,2013-07-18 17:55:00,
2013-07-18 13:00:00,88.7,64.8,30.01,SW,220,17.8,25.0,45,0.00,,,0.00,CWS Microserver 1.4,2013-07-18 18:00:00,
2013-07-18 13:05:00,88.5,64.4,30.00,SSW,213,23.5,27.7,45,0.00,,,0.00,CWS Microserver 1.4,2013-07-18 18:05:00,
2013-07-18 13:10:00,87.9,64.6,30.00,SSW,205,9.1,29.1,46,0.00,,,0.00,CWS Microserver 1.4,2013-07-18 18:10:00,
2013-07-18 13:15:00,88.3,65.4,30.00,SSW,202,5.9,29.1,47,0.00,,,0.00,CWS Microserver 1.4,2013-07-18 18:15:00,
2013-07-18 13:20:00,88.8,63.3,30.00,South,187,6.5,24.9,43,0.00,,,0.00,CWS Microserver 1.4,2013-07-18 18:20:00,
2013-07-18 13:25:00,88.5,64.0,30.00,SW,217,16.9,26.8,44,0.00,,,0.00,CWS Microserver 1.4,2013-07-18 18:25:00,
2013-07-18 13:35:00,88.5,65.5,29.99,SSW,210,15.2,24.1,46,0.00,,,0.00,CWS Microserver 1.4,2013-07-18 18:35:00,
2013-07-18 13:40:00,89.0,64.0,29.99,SSW,203,17.0,24.1,43,0.00,,,0.00,CWS Microserver 1.4,2013-07-18 18:40:00,
2013-07-18 13:45:00,89.2,63.5,29.99,SW,227,18.3,27.5,42,0.00,,,0.00,CWS Microserver 1.4,2013-07-18 18:45:00,
2013-07-18 13:50:00,89.4,64.9,29.99,SW,223,17.3,27.5,44,0.00,,,0.00,CWS Microserver 1.4,2013-07-18 18:50:00,
2013-07-18 13:55:00,89.0,65.8,29.99,South,182,6.2,22.5,46,0.00,,,0.00,CWS Microserver 1.4,2013-07-18 18:55:00,
2013-07-18 14:00:00,89.4,63.4,29.98,SW,230,17.3,28.0,42,0.00,,,0.00,CWS Microserver 1.4,2013-07-18 19:00:00,
2013-07-18 14:05:00,89.2,64.5,29.98,SW,227,15.8,28.0,44,0.00,,,0.00,CWS Microserver 1.4,2013-07-18 19:05:00,
2013-07-18 14:10:00,89.2,64.8,29.98,SSW,210,16.0,24.6,44,0.00,,,0.00,CWS Microserver 1.4,2013-07-18 19:10:00,
2013-07-18 14:15:00,89.9,64.6,29.98,SW,216,10.8,23.1,43,0.00,,,0.00,CWS Microserver 1.4,2013-07-18 19:15:00,
2013-07-18 14:20:00,89.4,65.0,29.98,SW,228,16.8,26.6,44,0.00,,,0.00,CWS Microserver 1.4,2013-07-18 19:20:00,
2013-07-18 14:25:00,89.7,64.4,29.98,SSW,198,11.4,26.6,43,0.00,,,0.00,CWS Microserver 1.4,2013-07-18 19:25:00,
2013-07-18 14:30:00,88.8,64.5,29.98,SW,220,22.2,25.4,44,0.00,,,0.00,CWS Microserver 1.4,2013-07-18 19:30:00,
2013-07-18 14:35:00,89.0,65.8,29.98,SW,227,17.8,26.3,46,0.00,,,0.00,CWS Microserver 1.4,2013-07-18 19:35:00,
2013-07-18 14:40:00,89.4,66.2,29.98,SSW,204,14.1,26.3,46,0.00,,,0.00,CWS Microserver 1.4,2013-07-18 19:40:00,
2013-07-18 14:45:00,89.0,64.0,29.98,SW,223,17.2,25.5,43,0.00,,,0.00,CWS Microserver 1.4,2013-07-18 19:45:00,
2013-07-18 14:50:00,89.0,65.4,29.98,SSW,206,10.2,25.5,45,0.00,,,0.00,CWS Microserver 1.4,2013-07-18 19:50:00,
2013-07-18 14:55:00,89.6,65.0,29.97,SW,226,18.3,25.1,44,0.00,,,0.00,CWS Microserver 1.4,2013-07-18 19:55:00,
2013-07-18 15:00:00,89.7,65.8,29.97,SW,228,15.3,24.0,45,0.00,,,0.00,CWS Microserver 1.4,2013-07-18 20:00:00,
2013-07-18 15:10:00,89.0,64.2,29.96,SW,231,15.2,26.6,44,0.00,,,0.00,CWS Microserver 1.4,2013-07-18 20:10:00,
2013-07-18 15:15:00,89.7,64.9,29.96,SSW,202,10.5,26.4,44,0.00,,,0.00,CWS Microserver 1.4,2013-07-18 20:15:00,
2013-07-18 15:20:00,90.5,66.9,29.96,SW,231,17.0,22.5,46,0.00,,,0.00,CWS Microserver 1.4,2013-07-18 20:20:00,
2013-07-18 15:25:00,89.9,65.4,29.96,SSW,194,12.4,19.9,44,0.00,,,0.00,CWS Microserver 1.4,2013-07-18 20:25:00,
2013-07-18 15:30:00,89.7,65.6,29.96,SW,228,10.7,22.9,45,0.00,,,0.00,CWS Microserver 1.4,2013-07-18 20:30:00,
2013-07-18 15:35:00,89.9,64.6,29.96,SSW,195,10.3,22.9,43,0.00,,,0.00,CWS Microserver 1.4,2013-07-18 20:35:00,
2013-07-18 15:40:00,90.3,67.0,29.96,SSW,208,17.2,20.9,46,0.00,,,0.00,CWS Microserver 1.4,2013-07-18 20:40:00,
2013-07-18 15:45:00,90.1,65.7,29.95,SSW,195,13.5,20.0,44,0.00,,,0.00,CWS Microserver 1.4,2013-07-18 20:45:00,
2013-07-18 15:50:00,90.5,67.0,29.95,SSW,205,11.5,20.0,46,0.00,,,0.00,CWS Microserver 1.4,2013-07-18 20:50:00,
2013-07-18 15:55:00,90.5,66.4,29.95,South,186,6.7,19.8,45,0.00,,,0.00,CWS Microserver 1.4,2013-07-18 20:55:00,
2013-07-18 16:00:00,90.1,64.4,29.95,SSW,201,10.2,20.2,42,0.00,,,0.00,CWS Microserver 1.4,2013-07-18 21:00:00,
2013-07-18 16:05:00,90.1,66.1,29.95,South,183,10.3,20.2,45,0.00,,,0.00,CWS Microserver 1.4,2013-07-18 21:05:00,
2013-07-18 16:10:00,90.5,65.8,29.94,SW,231,18.3,20.6,44,0.00,,,0.00,CWS Microserver 1.4,2013-07-18 21:10:00,
2013-07-18 16:20:00,89.4,65.7,29.94,WSW,237,11.4,25.7,45,0.00,,,0.00,CWS Microserver 1.4,2013-07-18 21:20:00,
2013-07-18 16:25:00,89.7,65.2,29.94,SW,228,10.2,25.7,44,0.00,,,0.00,CWS Microserver 1.4,2013-07-18 21:25:00,
2013-07-18 16:30:00,89.7,64.9,29.94,SW,225,18.4,24.0,44,0.00,,,0.00,CWS Microserver 1.4,2013-07-18 21:30:00,
2013-07-18 16:35:00,89.7,64.6,29.93,SW,222,16.1,25.1,43,0.00,,,0.00,CWS Microserver 1.4,2013-07-18 21:35:00,
2013-07-18 16:40:00,89.6,66.5,29.93,South,191,5.8,25.1,46,0.00,,,0.00,CWS Microserver 1.4,2013-07-18 21:40:00,
2013-07-18 16:45:00,90.3,67.2,29.93,SW,231,18.5,24.7,46,0.00,,,0.00,CWS Microserver 1.4,2013-07-18 21:45:00,
2013-07-18 16:50:00,90.1,66.3,29.93,SW,218,17.4,23.9,45,0.00,,,0.00,CWS Microserver 1.4,2013-07-18 21:50:00,
2013-07-18 17:00:00,89.4,66.4,29.92,SSW,211,10.6,26.8,46,0.00,,,0.00,CWS Microserver 1.4,2013-07-18 22:00:00,
2013-07-18 17:05:00,89.9,65.9,29.92,South,190,5.5,26.8,45,0.00,,,0.00,CWS Microserver 1.4,2013-07-18 22:05:00,
2013-07-18 17:10:00,89.9,66.1,29.92,SW,232,12.4,21.6,45,0.00,,,0.00,CWS Microserver 1.4,2013-07-18 22:10:00,
2013-07-18 17:15:00,89.7,66.1,29.91,SSW,210,14.3,21.6,46,0.00,,,0.00,CWS Microserver 1.4,2013-07-18 22:15:00,
2013-07-18 17:20:00,89.7,65.8,29.91,SW,221,21.9,24.5,45,0.00,,,0.00,CWS Microserver 1.4,2013-07-18 22:20:00,
2013-07-18 17:25:00,89.4,65.5,29.92,SW,218,8.6,28.1,45,0.00,,,0.00,CWS Microserver 1.4,2013-07-18 22:25:00,
2013-07-18 17:30:00,89.6,65.1,29.91,SW,216,7.1,28.1,44,0.00,,,0.00,CWS Microserver 1.4,2013-07-18 22:30:00,
2013-07-18 17:35:00,89.6,65.6,29.91,SW,232,10.7,23.9,45,0.00,,,0.00,CWS Microserver 1.4,2013-07-18 22:35:00,
2013-07-18 17:40:00,89.2,64.4,29.90,SW,225,20.1,27.7,44,0.00,,,0.00,CWS Microserver 1.4,2013-07-18 22:40:00,
2013-07-18 17:45:00,89.2,64.7,29.90,SW,227,18.9,30.4,44,0.00,,,0.00,CWS Microserver 1.4,2013-07-18 22:45:00,
2013-07-18 17:50:00,89.2,65.4,29.91,SW,221,15.4,30.4,45,0.00,,,0.00,CWS Microserver 1.4,2013-07-18 22:50:00,
2013-07-18 17:55:00,89.0,65.1,29.90,SW,226,21.1,26.6,45,0.00,,,0.00,CWS Microserver 1.4,2013-07-18 22:55:00,
2013-07-18 18:00:00,89.0,65.5,29.90,SW,215,6.8,26.6,46,0.00,,,0.00,CWS Microserver 1.4,2013-07-18 23:00:00,
2013-07-18 18:05:00,89.0,65.1,29.90,SSW,196,13.1,25.2,45,0.00,,,0.00,CWS Microserver 1.4,2013-07-18 23:05:00,
2013-07-18 18:10:00,88.8,66.0,29.90,SW,221,9.6,24.7,47,0.00,,,0.00,CWS Microserver 1.4,2013-07-18 23:10:00,
2013-07-18 18:15:00,88.7,65.4,29.90,SW,236,9.0,25.0,46,0.00,,,0.00,CWS Microserver 1.4,2013-07-18 23:15:00,
2013-07-18 18:20:00,88.5,65.5,29.90,SW,216,14.4,25.0,46,0.00,,,0.00,CWS Microserver 1.4,2013-07-18 23:20:00,
2013-07-18 18:25:00,88.8,65.6,29.89,SW,223,23.0,23.0,46,0.00,,,0.00,CWS Microserver 1.4,2013-07-18 23:25:00,
2013-07-18 18:30:00,88.7,65.7,29.89,SW,219,14.3,27.4,46,0.00,,,0.00,CWS Microserver 1.4,2013-07-18 23:30:00,
2013-07-18 18:35:00,88.5,65.7,29.89,SW,222,19.3,27.4,47,0.00,,,0.00,CWS Microserver 1.4,2013-07-18 23:35:00,
2013-07-18 18:40:00,88.3,65.7,29.89,SW,223,22.3,26.7,47,0.00,,,0.00,CWS Microserver 1.4,2013-07-18 23:40:00,
2013-07-18 18:45:00,88.1,65.6,29.89,SW,225,18.2,26.6,47,0.00,,,0.00,CWS Microserver 1.4,2013-07-18 23:45:00,
2013-07-18 18:50:00,87.9,65.8,29.89,SW,219,15.6,26.6,48,0.00,,,0.00,CWS Microserver 1.4,2013-07-18 23:50:00,
2013-07-18 18:55:00,88.3,66.3,29.89,SSW,199,9.4,21.4,48,0.00,,,0.00,CWS Microserver 1.4,2013-07-18 23:55:00,
2013-07-18 19:00:00,88.1,66.0,29.89,SSW,212,10.6,25.7,48,0.00,,,0.00,CWS Microserver 1.4,2013-07-19 00:00:00,
2013-07-18 19:05:00,87.9,65.7,29.88,SSW,199,10.8,25.7,48,0.00,,,0.00,CWS Microserver 1.4,2013-07-19 00:05:00,
2013-07-18 19:10:00,88.1,65.9,29.88,SW,229,13.0,23.5,48,0.00,,,0.00,CWS Microserver 1.4,2013-07-19 00:10:00,
2013-07-18 19:15:00,87.8,65.7,29.88,SW,235,7.6,24.4,48,0.00,,,0.00,CWS Microserver 1.4,2013-07-19 00:15:00,
2013-07-18 19:20:00,87.8,65.5,29.88,SW,231,12.7,24.4,47,0.00,,,0.00,CWS Microserver 1.4,2013-07-19 00:20:00,
2013-07-18 19:25:00,87.8,65.5,29.88,SW,225,13.8,22.6,47,0.00,,,0.00,CWS Microserver 1.4,2013-07-19 00:25:00,
2013-07-18 19:30:00,87.6,65.3,29.88,WSW,242,17.3,23.3,47,0.00,,,0.00,CWS Microserver 1.4,2013-07-19 00:30:00,
2013-07-18 19:35:00,87.6,65.4,29.88,SW,219,15.3,23.3,48,0.00,,,0.00,CWS Microserver 1.4,2013-07-19 00:35:00,
2013-07-18 19:40:00,87.2,65.6,29.88,WSW,243,13.3,22.6,48,0.00,,,0.00,CWS Microserver 1.4,2013-07-19 00:40:00,
2013-07-18 19:45:00,87.2,65.6,29.88,SSW,210,7.6,22.6,48,0.00,,,0.00,CWS Microserver 1.4,2013-07-19 00:45:00,
2013-07-18 19:50:00,87.0,65.5,29.88,SW,226,16.2,22.0,49,0.00,,,0.00,CWS Microserver 1.4,2013-07-19 00:50:00,
2013-07-18 19:55:00,86.7,65.5,29.88,SSW,199,7.2,22.0,49,0.00,,,0.00,CWS Microserver 1.4,2013-07-19 00:55:00,
2013-07-18 20:00:00,86.7,65.9,29.88,SW,226,9.9,22.8,50,0.00,,,0.00,CWS Microserver 1.4,2013-07-19 01:00:00,
2013-07-18 20:05:00,86.3,66.0,29.88,SW,225,17.1,22.8,51,0.00,,,0.00,CWS Microserver 1.4,2013-07-19 01:05:00,
2013-07-18 20:10:00,86.3,65.9,29.88,SSW,204,10.3,19.8,50,0.00,,,0.00,CWS Microserver 1.4,2013-07-19 01:10:00,
2013-07-18 20:15:00,86.0,65.7,29.88,SSW,205,3.8,19.8,51,0.00,,,0.00,CWS Microserver 1.4,2013-07-19 01:15:00,
2013-07-18 20:20:00,86.0,66.0,29.88,SW,232,8.4,18.6,51,0.00,,,0.00,CWS Microserver 1.4,2013-07-19 01:20:00,
2013-07-18 20:25:00,85.8,66.1,29.88,SSW,200,1.8,17.4,52,0.00,,,0.00,CWS Microserver 1.4,2013-07-19 01:25:00,
2013-07-18 20:30:00,85.6,66.2,29.88,SW,226,11.6,17.4,52,0.00,,,0.00,CWS Microserver 1.4,2013-07-19 01:30:00,
2013-07-18 20:35:00,85.4,66.2,29.88,West,279,6.8,17.5,52,0.00,,,0.00,CWS Microserver 1.4,2013-07-19 01:35:00,
2013-07-18 20:40:00,85.2,66.3,29.87,SW,215,4.5,17.5,53,0.00,,,0.00,CWS Microserver 1.4,2013-07-19 01:40:00,
2013-07-18 20:45:00,84.9,66.5,29.87,SW,216,6.9,17.0,54,0.00,,,0.00,CWS Microserver 1.4,2013-07-19 01:45:00,
2013-07-18 20:50:00,84.7,66.6,29.87,South,190,2.6,15.8,54,0.00,,,0.00,CWS Microserver 1.4,2013-07-19 01:50:00,
2013-07-18 20:55:00,84.3,66.6,29.87,SW,223,5.1,15.6,55,0.00,,,0.00,CWS Microserver 1.4,2013-07-19 01:55:00,
2013-07-18 21:00:00,84.3,66.5,29.87,SSW,192,9.1,15.9,55,0.00,,,0.00,CWS Microserver 1.4,2013-07-19 02:00:00,
2013-07-18 21:05:00,84.3,66.7,29.87,South,175,4.3,15.9,55,0.00,,,0.00,CWS Microserver 1.4,2013-07-19 02:05:00,
2013-07-18 21:10:00,84.2,66.8,29.87,SW,228,5.6,13.6,56,0.00,,,0.00,CWS Microserver 1.4,2013-07-19 02:10:00,
2013-07-18 21:15:00,84.2,66.9,29.87,SSW,202,6.0,12.9,56,0.00,,,0.00,CWS Microserver 1.4,2013-07-19 02:15:00,
2013-07-18 21:20:00,84.0,66.9,29.86,SSW,201,10.5,12.7,56,0.00,,,0.00,CWS Microserver 1.4,2013-07-19 02:20:00,
2013-07-18 21:25:00,84.0,66.8,29.87,SSW,202,4.1,15.4,56,0.00,,,0.00,CWS Microserver 1.4,2013-07-19 02:25:00,
2013-07-18 21:30:00,83.8,66.7,29.87,SSW,200,5.1,16.1,56,0.00,,,0.00,CWS Microserver 1.4,2013-07-19 02:30:00,
2013-07-18 21:35:00,83.8,66.6,29.86,SW,223,15.0,18.2,56,0.00,,,0.00,CWS Microserver 1.4,2013-07-19 02:35:00,
2013-07-18 21:40:00,83.8,66.8,29.87,SW,223,7.0,18.2,56,0.00,,,0.00,CWS Microserver 1.4,2013-07-19 02:40:00,
2013-07-18 21:45:00,83.6,66.6,29.87,SSW,211,2.4,16.7,56,0.00,,,0.00,CWS Microserver 1.4,2013-07-19 02:45:00,
2013-07-18 21:50:00,83.4,66.6,29.87,SW,224,12.3,16.7,57,0.00,,,0.00,CWS Microserver 1.4,2013-07-19 02:50:00,
2013-07-18 21:55:00,83.4,66.7,29.87,WSW,238,8.4,19.1,57,0.00,,,0.00,CWS Microserver 1.4,2013-07-19 02:55:00,
2013-07-18 22:00:00,83.1,66.7,29.87,SSW,205,10.4,19.1,57,0.00,,,0.00,CWS Microserver 1.4,2013-07-19 03:00:00,
2013-07-18 22:05:00,83.3,66.7,29.87,SW,233,12.2,17.2,57,0.00,,,0.00,CWS Microserver 1.4,2013-07-19 03:05:00,
2013-07-18 22:10:00,83.3,66.7,29.87,SW,232,9.0,17.2,57,0.00,,,0.00,CWS Microserver 1.4,2013-07-19 03:10:00,
2013-07-18 22:15:00,83.1,66.7,29.87,SW,216,3.9,17.5,58,0.00,,,0.00,CWS Microserver 1.4,2013-07-19 03:15:00,
2013-07-18 22:20:00,83.1,66.8,29.87,SW,216,6.5,19.5,58,0.00,,,0.00,CWS Microserver 1.4,2013-07-19 03:20:00,
2013-07-18 22:25:00,82.9,66.6,29.87,SW,219,9.4,19.5,58,0.00,,,0.00,CWS Microserver 1.4,2013-07-19 03:25:00,
2013-07-18 22:30:00,82.7,66.4,29.87,SW,224,11.8,20.7,58,0.00,,,0.00,CWS Microserver 1.4,2013-07-19 03:30:00,
2013-07-18 22:35:00,82.7,66.4,29.86,SW,232,8.6,20.7,58,0.00,,,0.00,CWS Microserver 1.4,2013-07-19 03:35:00,
2013-07-18 22:40:00,82.5,66.4,29.86,SW,230,12.2,18.2,58,0.00,,,0.00,CWS Microserver 1.4,2013-07-19 03:40:00,
2013-07-18 22:45:00,82.7,66.3,29.86,SW,227,15.6,19.6,57,0.00,,,0.00,CWS Microserver 1.4,2013-07-19 03:45:00,
2013-07-18 22:50:00,82.5,66.2,29.86,SW,225,18.2,19.6,58,0.00,,,0.00,CWS Microserver 1.4,2013-07-19 03:50:00,
2013-07-18 22:55:00,82.4,66.2,29.86,WSW,252,12.0,18.6,58,0.00,,,0.00,CWS Microserver 1.4,2013-07-19 03:55:00,
2013-07-18 23:00:00,82.5,66.1,29.86,WSW,243,6.6,22.5,57,0.00,,,0.00,CWS Microserver 1.4,2013-07-19 04:00:00,
2013-07-18 23:05:00,82.5,66.0,29.86,SSW,199,3.8,22.5,57,0.00,,,0.00,CWS Microserver 1.4,2013-07-19 04:05:00,
2013-07-18 23:10:00,82.4,66.2,29.86,SW,222,9.0,20.2,58,0.00,,,0.00,CWS Microserver 1.4,2013-07-19 04:10:00,
2013-07-18 23:15:00,82.5,65.9,29.86,SW,229,16.2,18.3,57,0.00,,,0.00,CWS Microserver 1.4,2013-07-19 04:15:00,
2013-07-18 23:20:00,82.5,65.9,29.86,SW,225,19.6,19.6,57,0.00,,,0.00,CWS Microserver 1.4,2013-07-19 04:20:00,
2013-07-18 23:25:00,82.5,65.8,29.86,SW,225,12.3,20.9,57,0.00,,,0.00,CWS Microserver 1.4,2013-07-19 04:25:00,
2013-07-18 23:30:00,82.4,65.8,29.86,SW,226,11.6,20.9,57,0.00,,,0.00,CWS Microserver 1.4,2013-07-19 04:30:00,
2013-07-18 23:35:00,82.5,65.9,29.86,SSW,213,13.0,23.5,57,0.00,,,0.00,CWS Microserver 1.4,2013-07-19 04:35:00,
2013-07-18 23:40:00,82.4,65.9,29.86,SW,224,12.5,23.5,57,0.00,,,0.00,CWS Microserver 1.4,2013-07-19 04:40:00,
2013-07-18 23:45:00,82.2,65.9,29.86,SW,230,13.7,20.8,58,0.00,,,0.00,CWS Microserver 1.4,2013-07-19 04:45:00,
2013-07-18 23:50:00,82.0,65.9,29.86,SW,231,8.6,20.5,58,0.00,,,0.00,CWS Microserver 1.4,2013-07-19 04:50:00,
2013-07-18 23:55:00,81.8,65.8,29.86,SSW,208,9.2,19.8,58,0.00,,,0.00,CWS Microserver 1.4,2013-07-19 04:55:00,